Time,TemperatureF,DewpointF,PressureIn,WindDirection,WindDirectionDegrees,WindSpeedMPH,WindSpeedGustMPH,Humidity,HourlyPrecipIn,Conditions,Clouds,dailyrainin,SolarRadiationWatts/m^2,SoftwareType,DateUTC
2013-06-06 00:02:00,50.0,42.0,-100.00,East,91,4.0,5.0,75,0.00,,,0.00,0.000000,,2013-06-06 05:02:00,
2013-06-06 00:23:00,49.0,37.0,-100.00,ENE,78,4.0,6.0,64,0.00,,,0.00,0.000000,,2013-06-06 05:23:00,
2013-06-06 00:32:00,49.0,37.0,-100.00,ENE,78,4.0,6.0,64,0.00,,,0.00,0.000000,,2013-06-06 05:32:00,
2013-06-06 00:42:00,49.0,37.0,-100.00,ENE,78,4.0,6.0,64,0.00,,,0.00,0.000000,,2013-06-06 05:42:00,
2013-06-06 00:52:00,49.0,37.0,-100.00,ENE,78,4.0,6.0,64,0.00,,,0.00,0.000000,,2013-06-06 05:52:00,
2013-06-06 01:02:00,49.0,37.0,-100.00,ENE,78,4.0,6.0,64,0.00,,,0.00,0.000000,,2013-06-06 06:02:00,
2013-06-06 01:22:00,45.0,37.0,-100.00,SE,144,2.0,6.0,74,0.00,,,0.00,0.000000,,2013-06-06 06:22:00,
2013-06-06 01:33:00,45.0,37.0,-100.00,SE,144,2.0,6.0,74,0.00,,,0.00,0.000000,,2013-06-06 06:33:00,
2013-06-06 01:42:00,45.0,37.0,-100.00,SE,144,2.0,6.0,74,0.00,,,0.00,0.000000,,2013-06-06 06:42:00,
2013-06-06 01:52:00,45.0,37.0,-100.00,SE,144,2.0,6.0,74,0.00,,,0.00,0.000000,,2013-06-06 06:52:00,
2013-06-06 02:02:00,45.0,37.0,-100.00,SE,144,2.0,6.0,74,0.00,,,0.00,0.000000,,2013-06-06 07:02:00,
2013-06-06 02:22:00,45.0,39.0,-100.00,NE,44,5.0,6.0,80,0.00,,,0.00,0.000000,,2013-06-06 07:22:00,
2013-06-06 02:32:00,45.0,39.0,-100.00,NE,44,5.0,6.0,80,0.00,,,0.00,0.000000,,2013-06-06 07:32:00,
2013-06-06 02:42:00,45.0,39.0,-100.00,NE,44,5.0,6.0,80,0.00,,,0.00,0.000000,,2013-06-06 07:42:00,
2013-06-06 02:52:00,45.0,39.0,-100.00,NE,44,5.0,6.0,80,0.00,,,0.00,0.000000,,2013-06-06 07:52:00,
2013-06-06 03:02:00,45.0,39.0,-100.00,NE,44,5.0,6.0,80,0.00,,,0.00,0.000000,,2013-06-06 08:02:00,
2013-06-06 03:22:00,45.0,40.0,-100.00,North,3,3.0,9.0,82,0.00,,,0.00,0.000000,,2013-06-06 08:22:00,
2013-06-06 03:32:00,45.0,40.0,-100.00,North,3,3.0,9.0,82,0.00,,,0.00,0.000000,,2013-06-06 08:32:00,
2013-06-06 03:42:00,45.0,40.0,-100.00,North,3,3.0,9.0,82,0.00,,,0.00,0.000000,,2013-06-06 08:42:00,
2013-06-06 03:52:00,45.0,40.0,-100.00,North,3,3.0,9.0,82,0.00,,,0.00,0.000000,,2013-06-06 08:52:00,
2013-06-06 04:02:00,45.0,40.0,-100.00,North,3,3.0,9.0,82,0.00,,,0.00,0.000000,,2013-06-06 09:02:00,
2013-06-06 04:22:00,47.0,42.0,-100.00,NE,42,6.0,9.0,82,0.00,,,0.00,0.000000,,2013-06-06 09:22:00,
2013-06-06 04:33:00,47.0,42.0,-100.00,NE,42,6.0,9.0,82,0.00,,,0.00,0.000000,,2013-06-06 09:33:00,
2013-06-06 04:43:00,47.0,42.0,-100.00,NE,42,6.0,9.0,82,0.00,,,0.00,0.000000,,2013-06-06 09:43:00,
2013-06-06 04:53:00,47.0,42.0,-100.00,NE,42,6.0,9.0,82,0.00,,,0.00,0.000000,,2013-06-06 09:53:00,
2013-06-06 05:03:00,47.0,42.0,-100.00,NE,42,6.0,9.0,82,0.00,,,0.00,0.000000,,2013-06-06 10:03:00,
2013-06-06 05:23:00,47.0,41.0,-100.00,NE,41,6.0,11.0,81,0.00,,,0.00,0.000000,,2013-06-06 10:23:00,
2013-06-06 05:33:00,47.0,41.0,-100.00,NE,41,6.0,11.0,81,0.00,,,0.00,0.000000,,2013-06-06 10:33:00,
2013-06-06 05:42:00,47.0,41.0,-100.00,NE,41,6.0,11.0,81,0.00,,,0.00,0.000000,,2013-06-06 10:42:00,
2013-06-06 05:53:00,47.0,41.0,-100.00,NE,41,6.0,11.0,81,0.00,,,0.00,0.000000,,2013-06-06 10:53:00,
2013-06-06 06:02:00,47.0,41.0,-100.00,NE,41,6.0,11.0,81,0.00,,,0.00,0.000000,,2013-06-06 11:02:00,
2013-06-06 06:23:00,47.0,41.0,-100.00,ENE,57,6.0,12.0,81,0.00,,,0.00,6.000000,,2013-06-06 11:23:00,
2013-06-06 06:32:00,47.0,41.0,-100.00,ENE,57,6.0,12.0,81,0.00,,,0.00,6.000000,,2013-06-06 11:32:00,
2013-06-06 06:42:00,47.0,41.0,-100.00,ENE,57,6.0,12.0,81,0.00,,,0.00,6.000000,,2013-06-06 11:42:00,
2013-06-06 06:52:00,47.0,41.0,-100.00,ENE,57,6.0,12.0,81,0.00,,,0.00,6.000000,,2013-06-06 11:52:00,
2013-06-06 07:02:00,47.0,41.0,-100.00,ENE,57,6.0,12.0,81,0.00,,,0.00,6.000000,,2013-06-06 12:02:00,
2013-06-06 07:23:00,48.0,43.0,-100.00,ENE,57,5.0,10.0,83,0.00,,,0.00,23.000000,,2013-06-06 12:23:00,
2013-06-06 07:33:00,48.0,43.0,-100.00,ENE,57,5.0,10.0,83,0.00,,,0.00,23.000000,,2013-06-06 12:33:00,
2013-06-06 07:43:00,48.0,43.0,-100.00,ENE,57,5.0,10.0,83,0.00,,,0.00,23.000000,,2013-06-06 12:43:00,
2013-06-06 07:53:00,48.0,43.0,-100.00,ENE,57,5.0,10.0,83,0.00,,,0.00,23.000000,,2013-06-06 12:53:00,
2013-06-06 08:03:00,48.0,43.0,-100.00,ENE,57,5.0,10.0,83,0.00,,,0.00,23.000000,,2013-06-06 13:03:00,
2013-06-06 08:23:00,49.0,44.0,-100.00,ENE,61,5.0,10.0,82,0.00,,,0.00,55.000000,,2013-06-06 13:23:00,
2013-06-06 08:33:00,49.0,44.0,-100.00,ENE,61,5.0,10.0,82,0.00,,,0.00,55.000000,,2013-06-06 13:33:00,
2013-06-06 08:43:00,49.0,44.0,-100.00,ENE,61,5.0,10.0,82,0.00,,,0.00,55.000000,,2013-06-06 13:43:00,
2013-06-06 08:53:00,49.0,44.0,-100.00,ENE,61,5.0,10.0,82,0.00,,,0.00,55.000000,,2013-06-06 13:53:00,
2013-06-06 09:03:00,49.0,44.0,-100.00,ENE,61,5.0,10.0,82,0.00,,,0.00,55.000000,,2013-06-06 14:03:00,
2013-06-06 09:23:00,49.0,44.0,-100.00,East,85,8.0,13.0,82,0.00,,,0.00,86.000000,,2013-06-06 14:23:00,
2013-06-06 09:33:00,49.0,44.0,-100.00,East,85,8.0,13.0,82,0.00,,,0.00,86.000000,,2013-06-06 14:33:00,
2013-06-06 09:43:00,49.0,44.0,-100.00,East,85,8.0,13.0,82,0.00,,,0.00,86.000000,,2013-06-06 14:43:00,
2013-06-06 09:53:00,49.0,44.0,-100.00,East,85,8.0,13.0,82,0.00,,,0.00,86.000000,,2013-06-06 14:53:00,
2013-06-06 10:03:00,49.0,44.0,-100.00,East,85,8.0,13.0,82,0.00,,,0.00,86.000000,,2013-06-06 15:03:00,
2013-06-06 10:23:00,50.0,45.0,-100.00,East,79,7.0,12.0,84,0.00,,,0.00,121.000000,,2013-06-06 15:23:00,
2013-06-06 10:33:00,50.0,45.0,-100.00,East,79,7.0,12.0,84,0.00,,,0.00,121.000000,,2013-06-06 15:33:00,
2013-06-06 10:43:00,50.0,45.0,-100.00,East,79,7.0,12.0,84,0.00,,,0.00,121.000000,,2013-06-06 15:43:00,
2013-06-06 10:53:00,50.0,45.0,-100.00,East,79,7.0,12.0,84,0.00,,,0.00,121.000000,,2013-06-06 15:53:00,
2013-06-06 11:03:00,50.0,45.0,-100.00,East,79,7.0,12.0,84,0.00,,,0.00,121.000000,,2013-06-06 16:03:00,
2013-06-06 11:23:00,52.0,47.0,-100.00,East,86,6.0,10.0,83,0.00,,,0.00,189.000000,,2013-06-06 16:23:00,
2013-06-06 11:34:00,52.0,47.0,-100.00,East,86,6.0,10.0,83,0.00,,,0.00,189.000000,,2013-06-06 16:34:00,
2013-06-06 11:44:00,52.0,47.0,-100.00,East,86,6.0,10.0,83,0.00,,,0.00,189.000000,,2013-06-06 16:44:00,
2013-06-06 11:53:00,52.0,47.0,-100.00,East,86,6.0,10.0,83,0.00,,,0.00,189.000000,,2013-06-06 16:53:00,
2013-06-06 12:03:00,52.0,47.0,-100.00,East,86,6.0,10.0,83,0.00,,,0.00,189.000000,,2013-06-06 17:03:00,
2013-06-06 12:23:00,53.0,46.0,-100.00,ESE,104,7.0,12.0,78,0.00,,,0.00,184.000000,,2013-06-06 17:23:00,
2013-06-06 12:33:00,53.0,46.0,-100.00,ESE,104,7.0,12.0,78,0.00,,,0.00,184.000000,,2013-06-06 17:33:00,
2013-06-06 12:43:00,53.0,46.0,-100.00,ESE,104,7.0,12.0,78,0.00,,,0.00,184.000000,,2013-06-06 17:43:00,
2013-06-06 12:53:00,53.0,46.0,-100.00,ESE,104,7.0,12.0,78,0.00,,,0.00,184.000000,,2013-06-06 17:53:00,
2013-06-06 13:03:00,53.0,46.0,-100.00,ESE,104,7.0,12.0,78,0.00,,,0.00,184.000000,,2013-06-06 18:03:00,
2013-06-06 13:23:00,54.0,47.0,-100.00,ESE,102,7.0,12.0,76,0.00,,,0.00,257.000000,,2013-06-06 18:23:00,
2013-06-06 13:33:00,54.0,47.0,-100.00,ESE,102,7.0,12.0,76,0.00,,,0.00,257.000000,,2013-06-06 18:33:00,
2013-06-06 13:43:00,54.0,47.0,-100.00,ESE,102,7.0,12.0,76,0.00,,,0.00,257.000000,,2013-06-06 18:43:00,
2013-06-06 13:53:00,54.0,47.0,-100.00,ESE,102,7.0,12.0,76,0.00,,,0.00,257.000000,,2013-06-06 18:53:00,
2013-06-06 14:03:00,54.0,47.0,-100.00,ESE,102,7.0,12.0,76,0.00,,,0.00,257.000000,,2013-06-06 19:03:00,
2013-06-06 14:23:00,55.0,46.0,-100.00,ESE,122,6.0,13.0,72,0.00,,,0.00,243.000000,,2013-06-06 19:23:00,
2013-06-06 14:34:00,55.0,46.0,-100.00,ESE,122,6.0,13.0,72,0.00,,,0.00,243.000000,,2013-06-06 19:34:00,
2013-06-06 14:43:00,55.0,46.0,-100.00,ESE,122,6.0,13.0,72,0.00,,,0.00,243.000000,,2013-06-06 19:43:00,
2013-06-06 14:53:00,55.0,46.0,-100.00,ESE,122,6.0,13.0,72,0.00,,,0.00,243.000000,,2013-06-06 19:53:00,
2013-06-06 15:03:00,55.0,46.0,-100.00,ESE,122,6.0,13.0,72,0.00,,,0.00,243.000000,,2013-06-06 20:03:00,
2013-06-06 15:23:00,56.0,45.0,-100.00,East,99,6.0,10.0,67,0.00,,,0.00,224.000000,,2013-06-06 20:23:00,
2013-06-06 15:33:00,56.0,45.0,-100.00,East,99,6.0,10.0,67,0.00,,,0.00,224.000000,,2013-06-06 20:33:00,
2013-06-06 15:43:00,56.0,45.0,-100.00,East,99,6.0,10.0,67,0.00,,,0.00,224.000000,,2013-06-06 20:43:00,
2013-06-06 15:53:00,56.0,45.0,-100.00,East,99,6.0,10.0,67,0.00,,,0.00,224.000000,,2013-06-06 20:53:00,
2013-06-06 16:03:00,56.0,45.0,-100.00,East,99,6.0,10.0,67,0.00,,,0.00,224.000000,,2013-06-06 21:03:00,
2013-06-06 16:23:00,59.0,47.0,-100.00,East,96,7.0,10.0,64,0.00,,,0.00,382.000000,,2013-06-06 21:23:00,
2013-06-06 16:33:00,59.0,47.0,-100.00,East,96,7.0,10.0,64,0.00,,,0.00,382.000000,,2013-06-06 21:33:00,
2013-06-06 16:44:00,59.0,47.0,-100.00,East,96,7.0,10.0,64,0.00,,,0.00,382.000000,,2013-06-06 21:44:00,
2013-06-06 16:53:00,59.0,47.0,-100.00,East,96,7.0,10.0,64,0.00,,,0.00,382.000000,,2013-06-06 21:53:00,
2013-06-06 17:03:00,59.0,47.0,-100.00,East,96,7.0,10.0,64,0.00,,,0.00,382.000000,,2013-06-06 22:03:00,
2013-06-06 17:23:00,58.0,45.0,-100.00,East,96,6.0,14.0,61,0.00,,,0.00,261.000000,,2013-06-06 22:23:00,
2013-06-06 17:33:00,58.0,45.0,-100.00,East,96,6.0,14.0,61,0.00,,,0.00,261.000000,,2013-06-06 22:33:00,
2013-06-06 17:43:00,58.0,45.0,-100.00,East,96,6.0,14.0,61,0.00,,,0.00,261.000000,,2013-06-06 22:43:00,
2013-06-06 17:53:00,58.0,45.0,-100.00,East,96,6.0,14.0,61,0.00,,,0.00,261.000000,,2013-06-06 22:53:00,
2013-06-06 18:02:00,58.0,45.0,-100.00,East,96,6.0,14.0,61,0.00,,,0.00,261.000000,,2013-06-06 23:02:00,
2013-06-06 18:22:00,59.0,44.0,-100.00,East,81,4.0,9.0,58,0.00,,,0.00,225.000000,,2013-06-06 23:22:00,
2013-06-06 18:33:00,59.0,44.0,-100.00,East,81,4.0,9.0,58,0.00,,,0.00,225.000000,,2013-06-06 23:33:00,
2013-06-06 18:43:00,59.0,44.0,-100.00,East,81,4.0,9.0,58,0.00,,,0.00,225.000000,,2013-06-06 23:43:00,
2013-06-06 18:52:00,59.0,44.0,-100.00,East,81,4.0,9.0,58,0.00,,,0.00,225.000000,,2013-06-06 23:52:00,
2013-06-06 19:02:00,59.0,44.0,-100.00,East,81,4.0,9.0,58,0.00,,,0.00,225.000000,,2013-06-07 00:02:00,
2013-06-06 19:22:00,59.0,42.0,-100.00,ESE,111,5.0,10.0,54,0.00,,,0.00,187.000000,,2013-06-07 00:22:00,
2013-06-06 19:32:00,59.0,42.0,-100.00,ESE,111,5.0,10.0,54,0.00,,,0.00,187.000000,,2013-06-07 00:32:00,
2013-06-06 19:42:00,59.0,42.0,-100.00,ESE,111,5.0,10.0,54,0.00,,,0.00,187.000000,,2013-06-07 00:42:00,
2013-06-06 19:52:00,59.0,42.0,-100.00,ESE,111,5.0,10.0,54,0.00,,,0.00,187.000000,,2013-06-07 00:52:00,
2013-06-06 20:02:00,59.0,42.0,-100.00,ESE,111,5.0,10.0,54,0.00,,,0.00,187.000000,,2013-06-07 01:02:00,
2013-06-06 20:22:00,58.0,43.0,-100.00,ENE,69,3.0,6.0,58,0.00,,,0.00,67.000000,,2013-06-07 01:22:00,
2013-06-06 20:33:00,58.0,43.0,-100.00,ENE,69,3.0,6.0,58,0.00,,,0.00,67.000000,,2013-06-07 01:33:00,
2013-06-06 20:42:00,58.0,43.0,-100.00,ENE,69,3.0,6.0,58,0.00,,,0.00,67.000000,,2013-06-07 01:42:00,
2013-06-06 20:52:00,58.0,43.0,-100.00,ENE,69,3.0,6.0,58,0.00,,,0.00,67.000000,,2013-06-07 01:52:00,
2013-06-06 21:02:00,58.0,43.0,-100.00,ENE,69,3.0,6.0,58,0.00,,,0.00,67.000000,,2013-06-07 02:02:00,
2013-06-06 21:22:00,54.0,42.0,-100.00,ESE,112,4.0,6.0,63,0.00,,,0.00,18.000000,,2013-06-07 02:22:00,
2013-06-06 21:32:00,54.0,42.0,-100.00,ESE,112,4.0,6.0,63,0.00,,,0.00,18.000000,,2013-06-07 02:32:00,
2013-06-06 21:42:00,54.0,42.0,-100.00,ESE,112,4.0,6.0,63,0.00,,,0.00,18.000000,,2013-06-07 02:42:00,
2013-06-06 21:52:00,54.0,42.0,-100.00,ESE,112,4.0,6.0,63,0.00,,,0.00,18.000000,,2013-06-07 02:52:00,
2013-06-06 22:02:00,54.0,42.0,-100.00,ESE,112,4.0,6.0,63,0.00,,,0.00,18.000000,,2013-06-07 03:02:00,
2013-06-06 22:22:00,48.0,41.0,-100.00,SW,226,2.0,4.0,78,0.00,,,0.00,0.000000,,2013-06-07 03:22:00,
2013-06-06 22:33:00,48.0,41.0,-100.00,SW,226,2.0,4.0,78,0.00,,,0.00,0.000000,,2013-06-07 03:33:00,
2013-06-06 22:44:00,48.0,41.0,-100.00,SW,226,2.0,4.0,78,0.00,,,0.00,0.000000,,2013-06-07 03:44:00,
2013-06-06 22:53:00,48.0,41.0,-100.00,SW,226,2.0,4.0,78,0.00,,,0.00,0.000000,,2013-06-07 03:53:00,
2013-06-06 23:03:00,48.0,41.0,-100.00,SW,226,2.0,4.0,78,0.00,,,0.00,0.000000,,2013-06-07 04:03:00,
2013-06-06 23:23:00,44.0,40.0,-100.00,WSW,249,0.0,3.0,86,0.00,,,0.00,0.000000,,2013-06-07 04:23:00,
2013-06-06 23:33:00,44.0,40.0,-100.00,WSW,249,0.0,3.0,86,0.00,,,0.00,0.000000,,2013-06-07 04:33:00,
2013-06-06 23:42:00,44.0,40.0,-100.00,WSW,249,0.0,3.0,86,0.00,,,0.00,0.000000,,2013-06-07 04:42:00,
2013-06-06 23:53:00,44.0,40.0,-100.00,WSW,249,0.0,3.0,86,0.00,,,0.00,0.000000,,2013-06-07 04:53:00,